Weather in Teleshovka

Russia / Penza Oblast     53°58′50″N   43°31′54″E
temp.,
°C
wind,
m/s
gust,
m/s
humid.,
%
clouds,
%
prec.,
mm/h
press.,
hPa
HPBL,
m
4 december, sat
sat400:00+4s91893100 0.0 1005653
03:00+5s102089100 0.1 1002702
06:00+3w81296100 1.8 1002803
09:000w51090100 3.5 1006757
12:00+1wsw6117328 0.0 1008887
15:000wsw6107844 0.0 1009842
18:00−2wsw6108092 0.1 1011900
21:00−2wsw6107359 0.1 1012873
5 december, sun
sun500:00−2w598171 0.0 1013778
03:00−3w48816 0.0 1015623
06:00−3w36839 0.0 1015408
09:00−3sw238463 0.0 1017179
12:00−1sw2370100 0.0 1017349
15:00−1sw2373100 0.0 1018311
18:00−2sw228033 0.0 101832
21:00−2sw22805 0.0 101928
6 december, mon
mon600:00−3sw22815 0.0 102031
03:00−3ssw228024 0.0 102127
06:00−3ssw2278100 0.0 102239
09:00−3s2473100 0.0 1023107
12:00−1s3664100 0.0 1023268
15:00−1sse3666100 0.0 1024254
18:00−2sse3868100 0.0 1025255
21:00−1sse41066100 0.0 1025371
7 december, tue
tue700:00−2sse4117186 0.0 1025413
03:00−3sse51372100 0.0 1024500
06:00−2sse71471100 0.0 1023528
09:00−2sse81572100 0.0 1022574
12:00−2sse91894100 0.8 1019615
15:000s91892100 1.7 1018654
18:00+1s71696100 1.1 1016532
21:00+2s71696100 1.8 1016499
8 december, wed
wed800:00+2s71796100 2.4 1015460
03:00+3s71693100 2.4 1015480
06:00+3s61591100 0.0 1014467
09:00+2s61589100 0.0 1015434
12:00+3s51388100 0.0 1015425
15:00+2sse41091100 0.0 1015271
18:00+1se3893100 0.0 1016183
21:00+1se4994100 0.0 1016219